Location: Huberhof
(49.2050°N, 7.4980°E)
Time: 05:09:12
(UTC+00:00)

Cosmos 1346 Rocket - Pass Details

Date: 29 October 2020
Orbit: 535 x 543 km, 81.2° (Epoch: 25 November)

Event Time Altitude Azimuth Distance (km) Brightness Sun altitude
Rises 17:28:03 0° 351° (N) 2,717 6.4 -12.7°
Reaches altitude 10° 17:30:16 10° 356° (N) 1,820 5.5 -13.1°
Maximum altitude 17:34:12 55° 75° (ENE) 658 2.8 -13.7°
Drops below altitude 10° 17:38:07 10° 154° (SSE) 1,807 5.2 -14.3°
Sets 17:40:18 0° 159° (SSE) 2,694 6.2 -14.7°
